Time,TemperatureF,DewpointF,PressureIn,WindDirection,WindDirectionDegrees,WindSpeedMPH,WindSpeedGustMPH,Humidity,HourlyPrecipIn,Conditions,Clouds,dailyrainin,SoftwareType,DateUTC
2013-01-24 00:00:00,2.7,-5.8,29.87,North,355,0.0,0.0,67,0.00,CLR,SCT,0.00,WeatherDisplay:10.37,2013-01-24 05:00:00,
2013-01-24 00:02:00,2.6,-5.9,29.87,North,355,0.0,0.0,67,0.00,CLR,SCT,0.00,WeatherDisplay:10.37,2013-01-24 05:02:00,
2013-01-24 00:07:00,2.5,-5.7,29.87,North,355,0.0,0.0,68,0.00,CLR,SCT,0.00,WeatherDisplay:10.37,2013-01-24 05:07:00,
2013-01-24 00:12:00,2.5,-5.4,29.87,North,355,0.0,0.0,69,0.00,CLR,SCT,0.00,WeatherDisplay:10.37,2013-01-24 05:12:00,
2013-01-24 00:26:00,2.4,-5.5,29.86,North,355,0.0,0.0,69,0.00,CLR,SCT,0.00,WeatherDisplay:10.37,2013-01-24 05:26:00,
2013-01-24 00:40:00,2.4,-6.1,29.86,North,355,0.0,0.0,67,0.00,CLR,SCT,0.00,WeatherDisplay:10.37,2013-01-24 05:40:00,
2013-01-24 00:45:00,2.5,-6.0,29.86,North,355,0.0,0.0,67,0.00,CLR,SCT,0.00,WeatherDisplay:10.37,2013-01-24 05:45:00,
2013-01-24 00:50:00,2.6,-5.9,29.86,North,355,0.0,0.0,67,0.00,CLR,SCT,0.00,WeatherDisplay:10.37,2013-01-24 05:50:00,
2013-01-24 00:55:00,2.6,-6.2,29.86,North,355,0.0,0.0,66,0.00,CLR,SCT,0.00,WeatherDisplay:10.37,2013-01-24 05:55:00,
2013-01-24 01:00:00,2.6,-6.2,29.86,North,355,0.0,0.0,66,0.00,CLR,SCT,0.00,WeatherDisplay:10.37,2013-01-24 06:00:00,
2013-01-24 01:05:00,2.6,-5.9,29.86,North,355,0.0,0.0,67,0.00,CLR,SCT,0.00,WeatherDisplay:10.37,2013-01-24 06:05:00,
2013-01-24 01:18:00,2.4,-6.1,29.86,North,355,0.0,0.0,67,0.00,CLR,SCT,0.00,WeatherDisplay:10.37,2013-01-24 06:18:00,
2013-01-24 01:23:00,2.3,-6.2,29.86,North,355,0.0,0.0,67,0.00,CLR,SCT,0.00,WeatherDisplay:10.37,2013-01-24 06:23:00,
2013-01-24 01:28:00,2.2,-6.0,29.86,North,355,0.0,0.0,68,0.00,CLR,SCT,0.00,WeatherDisplay:10.37,2013-01-24 06:28:00,
2013-01-24 01:33:00,2.1,-6.4,29.85,North,355,0.0,0.0,67,0.00,CLR,SCT,0.00,WeatherDisplay:10.37,2013-01-24 06:33:00,
2013-01-24 01:38:00,2.0,-6.8,29.85,North,355,0.0,0.0,66,0.00,CLR,SCT,0.00,WeatherDisplay:10.37,2013-01-24 06:38:00,
2013-01-24 01:43:00,2.0,-6.8,29.85,North,355,0.0,0.0,66,0.00,CLR,SCT,0.00,WeatherDisplay:10.37,2013-01-24 06:43:00,
2013-01-24 01:48:00,2.0,-6.8,29.85,North,355,0.0,0.0,66,0.00,CLR,SCT,0.00,WeatherDisplay:10.37,2013-01-24 06:48:00,
2013-01-24 01:53:00,1.9,-6.5,29.85,North,355,0.0,0.0,67,0.00,CLR,SCT,0.00,WeatherDisplay:10.37,2013-01-24 06:53:00,
2013-01-24 01:58:00,1.9,-6.9,29.85,North,355,0.0,0.0,66,0.00,CLR,SCT,0.00,WeatherDisplay:10.37,2013-01-24 06:58:00,
2013-01-24 02:03:00,2.1,-6.7,29.85,North,355,0.0,0.0,66,0.00,CLR,SCT,0.00,WeatherDisplay:10.37,2013-01-24 07:03:00,
2013-01-24 02:08:00,2.2,-6.9,29.85,North,355,0.0,0.0,65,0.00,CLR,SCT,0.00,WeatherDisplay:10.37,2013-01-24 07:08:00,
2013-01-24 02:13:00,2.2,-6.9,29.85,North,355,0.0,0.0,65,0.00,CLR,SCT,0.00,WeatherDisplay:10.37,2013-01-24 07:13:00,
2013-01-24 02:18:00,2.3,-6.8,29.85,North,355,0.0,0.0,65,0.00,CLR,SCT,0.00,WeatherDisplay:10.37,2013-01-24 07:18:00,
2013-01-24 02:23:00,2.3,-6.8,29.85,North,355,0.0,0.0,65,0.00,CLR,SCT,0.00,WeatherDisplay:10.37,2013-01-24 07:23:00,
2013-01-24 02:28:00,2.3,-7.1,29.85,North,355,0.0,1.1,64,0.00,CLR,SCT,0.00,WeatherDisplay:10.37,2013-01-24 07:28:00,
2013-01-24 02:33:00,2.4,-7.0,29.85,North,355,0.0,0.0,64,0.00,CLR,SCT,0.00,WeatherDisplay:10.37,2013-01-24 07:33:00,
2013-01-24 02:38:00,2.4,-7.0,29.85,North,355,0.0,0.0,64,0.00,CLR,SCT,0.00,WeatherDisplay:10.37,2013-01-24 07:38:00,
2013-01-24 02:43:00,2.3,-7.1,29.84,North,355,0.0,0.0,64,0.00,CLR,SCT,0.00,WeatherDisplay:10.37,2013-01-24 07:43:00,
2013-01-24 02:48:00,2.3,-7.1,29.84,North,355,0.0,0.0,64,0.00,CLR,SCT,0.00,WeatherDisplay:10.37,2013-01-24 07:48:00,
2013-01-24 02:53:00,2.2,-7.2,29.84,North,355,0.0,0.0,64,0.00,CLR,SCT,0.00,WeatherDisplay:10.37,2013-01-24 07:53:00,
2013-01-24 02:58:00,2.1,-7.3,29.84,North,355,0.4,1.1,64,0.00,CLR,SCT,0.00,WeatherDisplay:10.37,2013-01-24 07:58:00,
2013-01-24 03:03:00,2.1,-7.3,29.83,North,355,0.2,1.0,64,0.00,CLR,SCT,0.00,WeatherDisplay:10.37,2013-01-24 08:03:00,
2013-01-24 03:08:00,2.1,-7.3,29.83,North,355,0.0,0.0,64,0.00,CLR,SCT,0.00,WeatherDisplay:10.37,2013-01-24 08:08:00,
2013-01-24 03:13:00,2.1,-7.3,29.83,North,355,0.0,0.0,64,0.00,CLR,SCT,0.00,WeatherDisplay:10.37,2013-01-24 08:13:00,
2013-01-24 03:18:00,2.1,-7.0,29.83,North,355,0.0,0.0,65,0.00,CLR,SCT,0.00,WeatherDisplay:10.37,2013-01-24 08:18:00,
2013-01-24 03:23:00,2.0,-7.1,29.83,North,355,0.0,0.0,65,0.00,CLR,SCT,0.00,WeatherDisplay:10.37,2013-01-24 08:23:00,
2013-01-24 03:28:00,2.0,-6.8,29.83,North,355,0.0,0.0,66,0.00,CLR,SCT,0.00,WeatherDisplay:10.37,2013-01-24 08:28:00,
2013-01-24 03:33:00,1.9,-6.9,29.83,North,355,0.0,0.0,66,0.00,CLR,SCT,0.00,WeatherDisplay:10.37,2013-01-24 08:33:00,
2013-01-24 03:38:00,1.8,-7.0,29.83,North,355,0.0,0.0,66,0.00,CLR,SCT,0.00,WeatherDisplay:10.37,2013-01-24 08:38:00,
2013-01-24 03:43:00,1.7,-7.4,29.83,North,355,0.0,0.0,65,0.00,CLR,SCT,0.00,WeatherDisplay:10.37,2013-01-24 08:43:00,
2013-01-24 03:48:00,1.6,-7.5,29.83,North,355,0.0,0.0,65,0.00,CLR,SCT,0.00,WeatherDisplay:10.37,2013-01-24 08:48:00,
2013-01-24 03:53:00,1.5,-7.2,29.83,North,355,0.0,0.0,66,0.00,CLR,SCT,0.00,WeatherDisplay:10.37,2013-01-24 08:53:00,
2013-01-24 03:58:00,1.4,-7.3,29.83,North,355,0.0,0.0,66,0.00,CLR,SCT,0.00,WeatherDisplay:10.37,2013-01-24 08:58:00,
2013-01-24 04:03:00,1.3,-7.4,29.83,North,355,0.0,0.0,66,0.00,CLR,SCT,0.00,WeatherDisplay:10.37,2013-01-24 09:03:00,
2013-01-24 04:08:00,1.3,-7.4,29.83,North,355,0.0,0.0,66,0.00,CLR,SCT,0.00,WeatherDisplay:10.37,2013-01-24 09:08:00,
2013-01-24 04:13:00,1.2,-7.5,29.83,North,355,0.0,0.0,66,0.00,CLR,SCT,0.00,WeatherDisplay:10.37,2013-01-24 09:13:00,
2013-01-24 04:18:00,1.1,-7.3,29.83,North,355,0.0,0.0,67,0.00,CLR,SCT,0.00,WeatherDisplay:10.37,2013-01-24 09:18:00,
2013-01-24 04:23:00,1.0,-7.4,29.84,North,355,0.0,0.0,67,0.00,CLR,SCT,0.00,WeatherDisplay:10.37,2013-01-24 09:23:00,
2013-01-24 04:28:00,0.9,-7.2,29.84,North,355,0.0,1.1,68,0.00,CLR,SCT,0.00,WeatherDisplay:10.37,2013-01-24 09:28:00,
2013-01-24 04:33:00,1.0,-6.8,29.84,North,355,0.6,1.1,69,0.00,CLR,SCT,0.00,WeatherDisplay:10.37,2013-01-24 09:33:00,
2013-01-24 04:38:00,1.0,-6.5,29.84,North,355,0.0,0.0,70,0.00,CLR,SCT,0.00,WeatherDisplay:10.37,2013-01-24 09:38:00,
2013-01-24 04:43:00,1.1,-6.4,29.84,North,355,0.3,1.1,70,0.00,CLR,SCT,0.00,WeatherDisplay:10.37,2013-01-24 09:43:00,
2013-01-24 04:48:00,1.2,-6.3,29.84,North,355,0.0,0.0,70,0.00,CLR,SCT,0.00,WeatherDisplay:10.37,2013-01-24 09:48:00,
2013-01-24 04:53:00,1.3,-6.5,29.84,NNW,339,0.6,1.1,69,0.00,CLR,SCT,0.00,WeatherDisplay:10.37,2013-01-24 09:53:00,
2013-01-24 04:58:00,1.5,-6.0,29.84,North,349,0.2,1.1,70,0.00,CLR,SCT,0.00,WeatherDisplay:10.37,2013-01-24 09:58:00,
2013-01-24 05:04:00,1.5,-6.3,29.84,North,349,0.1,1.1,69,0.00,CLR,SCT,0.00,WeatherDisplay:10.37,2013-01-24 10:04:00,
2013-01-24 05:09:00,1.6,-6.5,29.84,North,349,0.0,0.0,68,0.00,CLR,SCT,0.00,WeatherDisplay:10.37,2013-01-24 10:09:00,
2013-01-24 05:14:00,1.6,-6.5,29.84,North,349,0.0,0.0,68,0.00,CLR,SCT,0.00,WeatherDisplay:10.37,2013-01-24 10:14:00,
2013-01-24 05:19:00,1.6,-6.2,29.84,North,349,0.1,1.1,69,0.00,CLR,SCT,0.00,WeatherDisplay:10.37,2013-01-24 10:19:00,
2013-01-24 05:24:00,1.6,-6.2,29.85,North,349,0.3,1.1,69,0.00,CLR,SCT,0.00,WeatherDisplay:10.37,2013-01-24 10:24:00,
2013-01-24 05:29:00,1.6,-6.2,29.85,North,349,0.0,0.0,69,0.00,CLR,SCT,0.00,WeatherDisplay:10.37,2013-01-24 10:29:00,
2013-01-24 05:34:00,1.6,-6.2,29.85,North,349,0.0,0.0,69,0.00,CLR,SCT,0.00,WeatherDisplay:10.37,2013-01-24 10:34:00,
2013-01-24 05:39:00,1.5,-6.3,29.85,North,349,0.0,0.0,69,0.00,CLR,SCT,0.00,WeatherDisplay:10.37,2013-01-24 10:39:00,
2013-01-24 05:44:00,1.4,-6.4,29.85,North,349,0.0,0.0,69,0.00,CLR,SCT,0.00,WeatherDisplay:10.37,2013-01-24 10:44:00,
2013-01-24 05:49:00,1.4,-6.1,29.85,North,349,0.0,0.0,70,0.00,CLR,SCT,0.00,WeatherDisplay:10.37,2013-01-24 10:49:00,
2013-01-24 05:54:00,1.4,-6.1,29.85,North,349,0.0,0.0,70,0.00,CLR,SCT,0.00,WeatherDisplay:10.37,2013-01-24 10:54:00,
2013-01-24 05:59:00,1.4,-5.8,29.85,North,349,0.0,0.0,71,0.00,CLR,SCT,0.00,WeatherDisplay:10.37,2013-01-24 10:59:00,
2013-01-24 06:04:00,1.4,-5.5,29.86,North,349,0.0,0.0,72,0.00,CLR,SCT,0.00,WeatherDisplay:10.37,2013-01-24 11:04:00,
2013-01-24 06:09:00,1.3,-5.9,29.86,North,349,0.0,0.0,71,0.00,CLR,SCT,0.00,WeatherDisplay:10.37,2013-01-24 11:09:00,
2013-01-24 06:14:00,1.1,-6.1,29.86,North,349,0.0,0.0,71,0.00,CLR,SCT,0.00,WeatherDisplay:10.37,2013-01-24 11:14:00,
2013-01-24 06:19:00,1.0,-6.2,29.86,North,349,0.0,0.0,71,0.00,CLR,SCT,0.00,WeatherDisplay:10.37,2013-01-24 11:19:00,
2013-01-24 06:24:00,0.9,-6.3,29.86,North,349,0.0,0.0,71,0.00,CLR,SCT,0.00,WeatherDisplay:10.37,2013-01-24 11:24:00,
2013-01-24 06:29:00,0.9,-6.3,29.87,North,349,0.0,0.0,71,0.00,CLR,SCT,0.00,WeatherDisplay:10.37,2013-01-24 11:29:00,
2013-01-24 06:34:00,0.8,-6.1,29.86,North,349,0.0,0.0,72,0.00,CLR,SCT,0.00,WeatherDisplay:10.37,2013-01-24 11:34:00,
2013-01-24 06:39:00,0.8,-6.1,29.87,North,349,0.0,0.0,72,0.00,CLR,SCT,0.00,WeatherDisplay:10.37,2013-01-24 11:39:00,
2013-01-24 06:44:00,0.8,-6.1,29.87,North,349,0.0,0.0,72,0.00,CLR,SCT,0.00,WeatherDisplay:10.37,2013-01-24 11:44:00,
2013-01-24 06:49:00,0.7,-5.9,29.87,North,349,0.0,0.0,73,0.00,CLR,SCT,0.00,WeatherDisplay:10.37,2013-01-24 11:49:00,
2013-01-24 06:54:00,0.6,-6.3,29.87,North,349,0.0,0.0,72,0.00,CLR,SCT,0.00,WeatherDisplay:10.37,2013-01-24 11:54:00,
2013-01-24 06:59:00,0.6,-6.3,29.87,North,349,0.0,0.0,72,0.00,CLR,SCT,0.00,WeatherDisplay:10.37,2013-01-24 11:59:00,
2013-01-24 07:04:00,0.5,-6.1,29.87,North,349,0.0,0.0,73,0.00,CLR,SCT,0.00,WeatherDisplay:10.37,2013-01-24 12:04:00,
2013-01-24 07:09:00,0.5,-6.1,29.87,North,349,0.0,0.0,73,0.00,CLR,SCT,0.00,WeatherDisplay:10.37,2013-01-24 12:09:00,
2013-01-24 07:14:00,0.5,-5.8,29.87,North,349,0.0,0.0,74,0.00,CLR,SCT,0.00,WeatherDisplay:10.37,2013-01-24 12:14:00,
2013-01-24 07:19:00,0.4,-6.2,29.87,North,349,0.0,0.0,73,0.00,CLR,SCT,0.00,WeatherDisplay:10.37,2013-01-24 12:19:00,
2013-01-24 07:24:00,0.4,-6.2,29.87,North,349,0.0,0.0,73,0.00,CLR,SCT,0.00,WeatherDisplay:10.37,2013-01-24 12:24:00,
2013-01-24 07:29:00,0.3,-6.0,29.88,North,349,0.0,0.0,74,0.00,CLR,SCT,0.00,WeatherDisplay:10.37,2013-01-24 12:29:00,
2013-01-24 07:34:00,0.3,-6.0,29.88,North,349,0.0,0.0,74,0.00,CLR,SCT,0.00,WeatherDisplay:10.37,2013-01-24 12:34:00,
2013-01-24 07:39:00,0.3,-6.0,29.87,North,349,0.0,0.0,74,0.00,CLR,SCT,0.00,WeatherDisplay:10.37,2013-01-24 12:39:00,
2013-01-24 07:44:00,0.3,-5.8,29.88,North,349,0.1,1.1,75,0.00,CLR,SCT,0.00,WeatherDisplay:10.37,2013-01-24 12:44:00,
2013-01-24 07:49:00,0.4,-5.7,29.88,North,349,0.4,1.1,75,0.00,CLR,SCT,0.00,WeatherDisplay:10.37,2013-01-24 12:49:00,
2013-01-24 07:54:00,0.7,-5.4,29.88,West,273,0.9,2.3,75,0.00,CLR,SCT,0.00,WeatherDisplay:10.37,2013-01-24 12:54:00,
2013-01-24 07:59:00,0.9,-5.2,29.88,WNW,283,0.0,0.0,75,0.00,CLR,SCT,0.00,WeatherDisplay:10.37,2013-01-24 12:59:00,
2013-01-24 08:04:00,1.2,-4.9,29.88,WNW,298,2.3,4.6,75,0.00,CLR,SCT,0.00,WeatherDisplay:10.37,2013-01-24 13:04:00,
2013-01-24 08:09:00,1.5,-4.6,29.88,WNW,296,0.0,1.1,75,0.00,CLR,SCT,0.00,WeatherDisplay:10.37,2013-01-24 13:09:00,
2013-01-24 08:14:00,1.9,-4.5,29.88,NW,309,0.2,1.1,74,0.00,CLR,SCT,0.00,WeatherDisplay:10.37,2013-01-24 13:14:00,
2013-01-24 08:19:00,2.4,-4.3,29.89,NW,320,2.6,6.9,73,0.00,CLR,SCT,0.00,WeatherDisplay:10.37,2013-01-24 13:19:00,
2013-01-24 08:24:00,3.1,-3.9,29.89,NW,319,1.4,2.3,72,0.00,CLR,SCT,0.00,WeatherDisplay:10.37,2013-01-24 13:24:00,
2013-01-24 08:29:00,3.5,-3.8,29.89,NW,319,1.4,2.3,71,0.00,CLR,SCT,0.00,WeatherDisplay:10.37,2013-01-24 13:29:00,
2013-01-24 08:34:00,3.7,-3.9,29.89,NW,319,1.2,3.5,70,0.00,CLR,SCT,0.00,WeatherDisplay:10.37,2013-01-24 13:34:00,
2013-01-24 08:39:00,3.9,-3.7,29.90,NW,326,1.8,3.5,70,0.00,CLR,SCT,0.00,WeatherDisplay:10.37,2013-01-24 13:39:00,
2013-01-24 08:44:00,4.0,-3.9,29.90,NW,308,0.8,2.3,69,0.00,CLR,SCT,0.00,WeatherDisplay:10.37,2013-01-24 13:44:00,
2013-01-24 08:49:00,4.3,-3.6,29.89,NNW,338,1.7,2.3,69,0.00,CLR,SCT,0.00,WeatherDisplay:10.37,2013-01-24 13:49:00,
2013-01-24 08:54:00,4.7,-3.2,29.90,NW,310,0.9,2.3,69,0.00,CLR,SCT,0.00,WeatherDisplay:10.37,2013-01-24 13:54:00,
2013-01-24 08:59:00,5.1,-2.9,29.90,WSW,253,3.3,6.9,69,0.00,CLR,SCT,0.00,WeatherDisplay:10.37,2013-01-24 13:59:00,
2013-01-24 09:04:00,5.5,-2.8,29.90,NW,315,4.8,9.2,68,0.00,CLR,SCT,0.00,WeatherDisplay:10.37,2013-01-24 14:04:00,
2013-01-24 09:09:00,5.9,-2.4,29.90,NW,311,2.1,5.0,68,0.00,CLR,SCT,0.00,WeatherDisplay:10.37,2013-01-24 14:09:00,
2013-01-24 09:14:00,6.2,-2.7,29.90,NNW,327,4.0,8.1,66,0.00,CLR,SCT,0.00,WeatherDisplay:10.37,2013-01-24 14:14:00,
2013-01-24 09:19:00,6.4,-2.2,29.90,West,277,3.2,5.8,67,0.00,CLR,SCT,0.00,WeatherDisplay:10.37,2013-01-24 14:19:00,
2013-01-24 09:24:00,6.7,-2.3,29.90,WNW,286,4.7,6.9,66,0.00,CLR,SCT,0.00,WeatherDisplay:10.37,2013-01-24 14:24:00,
2013-01-24 09:29:00,6.8,-1.8,29.90,NW,324,2.4,5.8,67,0.00,CLR,SCT,0.00,WeatherDisplay:10.37,2013-01-24 14:29:00,
2013-01-24 09:34:00,6.9,-2.1,29.90,WNW,283,5.7,9.2,66,0.00,CLR,SCT,0.00,WeatherDisplay:10.37,2013-01-24 14:34:00,
2013-01-24 09:39:00,7.0,-1.7,29.90,WNW,303,3.4,5.0,67,0.00,CLR,SCT,0.00,WeatherDisplay:10.37,2013-01-24 14:39:00,
2013-01-24 09:44:00,7.1,-1.6,29.90,WNW,300,5.1,9.2,67,0.00,CLR,SCT,0.00,WeatherDisplay:10.37,2013-01-24 14:44:00,
2013-01-24 09:49:00,7.4,-1.0,29.90,WNW,284,5.6,8.1,68,0.00,CLR,SCT,0.00,WeatherDisplay:10.37,2013-01-24 14:49:00,
2013-01-24 09:54:00,7.8,-1.2,29.90,SW,236,7.3,11.5,66,0.00,CLR,SCT,0.00,WeatherDisplay:10.37,2013-01-24 14:54:00,
2013-01-24 09:59:00,8.1,-1.2,29.91,WNW,303,7.4,12.7,65,0.00,CLR,SCT,0.00,WeatherDisplay:10.37,2013-01-24 14:59:00,
2013-01-24 10:04:00,8.1,-0.9,29.90,WNW,303,6.4,10.4,66,0.00,CLR,SCT,0.00,WeatherDisplay:10.37,2013-01-24 15:04:00,
2013-01-24 10:09:00,8.2,-1.5,29.90,West,268,6.0,9.2,64,0.00,CLR,SCT,0.00,WeatherDisplay:10.37,2013-01-24 15:09:00,
2013-01-24 10:14:00,8.4,-1.6,29.91,WNW,286,4.3,9.2,63,0.00,CLR,SCT,0.00,WeatherDisplay:10.37,2013-01-24 15:14:00,
2013-01-24 10:19:00,8.7,-1.3,29.91,West,277,5.7,8.1,63,0.00,CLR,SCT,0.00,WeatherDisplay:10.37,2013-01-24 15:19:00,
2013-01-24 10:24:00,9.0,-0.7,29.91,NW,319,6.2,9.2,64,0.00,CLR,SCT,0.00,WeatherDisplay:10.37,2013-01-24 15:24:00,
2013-01-24 10:29:00,9.1,-1.0,29.91,NNE,17,6.1,10.4,63,0.00,CLR,SCT,0.00,WeatherDisplay:10.37,2013-01-24 15:29:00,
2013-01-24 10:34:00,9.4,-0.7,29.91,WNW,287,7.5,13.8,63,0.00,CLR,SCT,0.00,WeatherDisplay:10.37,2013-01-24 15:34:00,
2013-01-24 10:39:00,9.5,-0.9,29.91,NW,316,7.1,10.4,62,0.00,CLR,SCT,0.00,WeatherDisplay:10.37,2013-01-24 15:39:00,
2013-01-24 10:44:00,9.5,-1.3,29.92,West,271,7.1,10.4,61,0.00,CLR,SCT,0.00,WeatherDisplay:10.37,2013-01-24 15:44:00,
2013-01-24 10:49:00,9.7,-1.1,29.91,NW,309,5.5,11.5,61,0.00,CLR,SCT,0.00,WeatherDisplay:10.37,2013-01-24 15:49:00,
2013-01-24 10:54:00,10.1,-0.7,29.90,WNW,303,9.2,13.8,61,0.00,CLR,SCT,0.00,WeatherDisplay:10.37,2013-01-24 15:54:00,
2013-01-24 10:59:00,10.3,-0.9,29.91,North,355,7.0,11.5,60,0.00,CLR,SCT,0.00,WeatherDisplay:10.37,2013-01-24 15:59:00,
2013-01-24 11:04:00,10.3,-0.9,29.91,WNW,289,7.4,13.0,60,0.00,CLR,SCT,0.00,WeatherDisplay:10.37,2013-01-24 16:04:00,
2013-01-24 11:09:00,10.4,-0.8,29.91,West,268,7.6,10.4,60,0.00,CLR,SCT,0.00,WeatherDisplay:10.37,2013-01-24 16:09:00,
2013-01-24 11:14:00,10.6,-0.2,29.91,NW,311,8.2,13.8,61,0.00,CLR,SCT,0.00,WeatherDisplay:10.37,2013-01-24 16:14:00,
2013-01-24 11:19:00,10.8,-0.7,29.90,NW,317,7.1,11.5,59,0.00,CLR,SCT,0.00,WeatherDisplay:10.37,2013-01-24 16:19:00,
2013-01-24 11:24:00,10.9,-1.0,29.90,North,355,6.2,11.5,58,0.00,CLR,SCT,0.00,WeatherDisplay:10.37,2013-01-24 16:24:00,
2013-01-24 11:29:00,11.1,-1.2,29.90,NNW,333,8.9,12.7,57,0.00,CLR,SCT,0.00,WeatherDisplay:10.37,2013-01-24 16:29:00,
2013-01-24 11:34:00,11.2,-1.1,29.90,NNW,333,5.0,8.0,57,0.00,CLR,SCT,0.00,WeatherDisplay:10.37,2013-01-24 16:34:00,
2013-01-24 11:39:00,11.7,-0.3,29.90,WNW,290,5.3,11.5,58,0.00,CLR,SCT,0.00,WeatherDisplay:10.37,2013-01-24 16:39:00,
2013-01-24 11:44:00,12.0,-0.3,29.90,NW,324,7.4,11.5,57,0.00,CLR,SCT,0.00,WeatherDisplay:10.37,2013-01-24 16:44:00,
2013-01-24 11:49:00,12.0,-0.7,29.89,NW,304,4.8,6.9,56,0.00,CLR,SCT,0.00,WeatherDisplay:10.37,2013-01-24 16:49:00,
2013-01-24 11:54:00,12.4,-0.3,29.89,NW,309,5.9,12.7,56,0.00,CLR,SCT,0.00,WeatherDisplay:10.37,2013-01-24 16:54:00,
2013-01-24 11:59:00,12.6,-0.2,29.89,NNW,338,6.7,12.7,56,0.00,CLR,SCT,0.00,WeatherDisplay:10.37,2013-01-24 16:59:00,
2013-01-24 12:04:00,12.8,-0.3,29.89,WSW,244,6.6,11.5,55,0.00,CLR,SCT,0.00,WeatherDisplay:10.37,2013-01-24 17:04:00,
2013-01-24 12:09:00,12.8,0.0,29.89,NW,313,6.9,9.2,56,0.00,CLR,SCT,0.00,WeatherDisplay:10.37,2013-01-24 17:09:00,
2013-01-24 12:14:00,13.3,0.5,29.89,NW,313,6.1,10.4,56,0.00,CLR,SCT,0.00,WeatherDisplay:10.37,2013-01-24 17:14:00,
2013-01-24 12:19:00,13.6,0.4,29.89,NW,308,8.2,11.5,55,0.00,CLR,SCT,0.00,WeatherDisplay:10.37,2013-01-24 17:19:00,
2013-01-24 12:24:00,13.7,0.5,29.89,NW,306,4.6,9.2,55,0.00,CLR,SCT,0.00,WeatherDisplay:10.37,2013-01-24 17:24:00,
2013-01-24 12:29:00,13.9,0.3,29.89,NNW,329,4.5,9.2,54,0.00,CLR,SCT,0.00,WeatherDisplay:10.37,2013-01-24 17:29:00,
2013-01-24 12:34:00,14.3,1.4,29.90,NNW,336,3.9,7.0,56,0.00,CLR,SCT,0.00,WeatherDisplay:10.37,2013-01-24 17:34:00,
2013-01-24 12:39:00,14.6,0.9,29.90,NW,323,6.1,10.4,54,0.00,CLR,SCT,0.00,WeatherDisplay:10.37,2013-01-24 17:39:00,
2013-01-24 12:44:00,14.6,0.5,29.89,NNW,340,7.9,18.4,53,0.00,CLR,SCT,0.00,WeatherDisplay:10.37,2013-01-24 17:44:00,
2013-01-24 12:49:00,14.7,0.6,29.89,NNW,344,5.2,9.0,53,0.00,CLR,SCT,0.00,WeatherDisplay:10.37,2013-01-24 17:49:00,
2013-01-24 12:54:00,15.1,1.0,29.89,WNW,299,2.8,6.0,53,0.00,CLR,SCT,0.00,WeatherDisplay:10.37,2013-01-24 17:54:00,
2013-01-24 12:59:00,15.2,0.7,29.89,West,271,5.8,8.1,52,0.00,CLR,SCT,0.00,WeatherDisplay:10.37,2013-01-24 17:59:00,
2013-01-24 13:04:00,15.4,0.9,29.89,NW,304,2.7,5.8,52,0.00,CLR,SCT,0.00,WeatherDisplay:10.37,2013-01-24 18:04:00,
2013-01-24 13:09:00,15.6,1.1,29.89,WNW,302,6.8,11.5,52,0.00,CLR,SCT,0.00,WeatherDisplay:10.37,2013-01-24 18:09:00,
2013-01-24 13:14:00,15.8,1.3,29.89,NW,319,6.3,9.2,52,0.00,CLR,SCT,0.00,WeatherDisplay:10.37,2013-01-24 18:14:00,
2013-01-24 13:19:00,15.9,1.4,29.90,WNW,298,4.8,8.1,52,0.00,CLR,SCT,0.00,WeatherDisplay:10.37,2013-01-24 18:19:00,
2013-01-24 13:24:00,15.7,1.6,29.89,West,279,5.2,7.0,53,0.00,CLR,SCT,0.00,WeatherDisplay:10.37,2013-01-24 18:24:00,
2013-01-24 13:29:00,15.7,0.3,29.89,WNW,297,6.5,11.5,50,0.00,CLR,SCT,0.00,WeatherDisplay:10.37,2013-01-24 18:29:00,
2013-01-24 13:34:00,15.3,-0.5,29.89,NNW,337,7.0,11.5,49,0.00,CLR,SCT,0.00,WeatherDisplay:10.37,2013-01-24 18:34:00,
2013-01-24 13:39:00,15.2,-0.6,29.89,NW,311,7.2,11.5,49,0.00,CLR,SCT,0.00,WeatherDisplay:10.37,2013-01-24 18:39:00,
2013-01-24 13:44:00,15.4,-0.4,29.90,West,272,3.2,6.0,49,0.00,CLR,SCT,0.00,WeatherDisplay:10.37,2013-01-24 18:44:00,
2013-01-24 13:49:00,16.0,-0.3,29.90,NW,311,5.3,7.0,48,0.00,CLR,SCT,0.00,WeatherDisplay:10.37,2013-01-24 18:49:00,
2013-01-24 13:54:00,16.3,-0.9,29.90,WNW,288,4.9,8.1,46,0.00,CLR,SCT,0.00,WeatherDisplay:10.37,2013-01-24 18:54:00,
2013-01-24 13:59:00,16.3,-1.8,29.90,WNW,288,7.3,10.4,44,0.00,CLR,SCT,0.00,WeatherDisplay:10.37,2013-01-24 18:59:00,
2013-01-24 14:04:00,16.2,-1.5,29.90,NW,317,6.8,11.5,45,0.00,CLR,SCT,0.00,WeatherDisplay:10.37,2013-01-24 19:04:00,
2013-01-24 14:09:00,16.5,-1.2,29.89,NW,306,7.3,11.5,45,0.00,CLR,SCT,0.00,WeatherDisplay:10.37,2013-01-24 19:09:00,
2013-01-24 14:14:00,16.8,-0.9,29.90,North,355,5.7,6.9,45,0.00,CLR,SCT,0.00,WeatherDisplay:10.37,2013-01-24 19:14:00,
2013-01-24 14:19:00,16.7,-1.0,29.90,WNW,290,4.0,5.0,45,0.00,CLR,SCT,0.00,WeatherDisplay:10.37,2013-01-24 19:19:00,
2013-01-24 14:24:00,16.6,-2.0,29.91,NW,315,7.8,11.5,43,0.00,CLR,SCT,0.00,WeatherDisplay:10.37,2013-01-24 19:24:00,
2013-01-24 14:29:00,16.3,-1.8,29.91,WNW,282,4.5,7.0,44,0.00,CLR,SCT,0.00,WeatherDisplay:10.37,2013-01-24 19:29:00,
2013-01-24 14:34:00,16.5,-1.2,29.90,WNW,292,3.6,6.9,45,0.00,CLR,SCT,0.00,WeatherDisplay:10.37,2013-01-24 19:34:00,
2013-01-24 14:39:00,16.7,-1.5,29.91,NW,313,6.6,10.4,44,0.00,CLR,SCT,0.00,WeatherDisplay:10.37,2013-01-24 19:39:00,
2013-01-24 14:44:00,16.8,-0.9,29.91,NW,325,7.8,11.5,45,0.00,CLR,SCT,0.00,WeatherDisplay:10.37,2013-01-24 19:44:00,
2013-01-24 14:49:00,16.8,0.0,29.91,WNW,296,4.3,9.2,47,0.00,CLR,SCT,0.00,WeatherDisplay:10.37,2013-01-24 19:49:00,
2013-01-24 14:54:00,17.0,-0.7,29.91,WNW,294,3.1,5.0,45,0.00,CLR,SCT,0.00,WeatherDisplay:10.37,2013-01-24 19:54:00,
2013-01-24 14:59:00,16.9,-0.8,29.91,NW,311,4.5,8.1,45,0.00,CLR,SCT,0.00,WeatherDisplay:10.37,2013-01-24 19:59:00,
2013-01-24 15:04:00,16.8,-2.4,29.91,West,273,8.2,12.7,42,0.00,CLR,SCT,0.00,WeatherDisplay:10.37,2013-01-24 20:04:00,
2013-01-24 15:09:00,16.8,-1.9,29.91,NW,318,3.7,5.0,43,0.00,CLR,SCT,0.00,WeatherDisplay:10.37,2013-01-24 20:09:00,
2013-01-24 15:14:00,17.0,-1.7,29.91,WNW,300,4.8,7.0,43,0.00,CLR,SCT,0.00,WeatherDisplay:10.37,2013-01-24 20:14:00,
2013-01-24 15:19:00,17.0,-2.2,29.91,WNW,296,6.9,11.5,42,0.00,CLR,SCT,0.00,WeatherDisplay:10.37,2013-01-24 20:19:00,
2013-01-24 15:24:00,17.1,-0.2,29.91,NW,320,3.8,6.9,46,0.00,CLR,SCT,0.00,WeatherDisplay:10.37,2013-01-24 20:24:00,
2013-01-24 15:29:00,17.1,-1.6,29.91,NW,313,5.3,9.2,43,0.00,CLR,SCT,0.00,WeatherDisplay:10.37,2013-01-24 20:29:00,
2013-01-24 15:34:00,17.0,-3.2,29.92,West,276,6.6,10.4,40,0.00,CLR,SCT,0.00,WeatherDisplay:10.37,2013-01-24 20:34:00,
2013-01-24 15:39:00,16.8,-2.4,29.92,West,268,5.9,10.4,42,0.00,CLR,SCT,0.00,WeatherDisplay:10.37,2013-01-24 20:39:00,
2013-01-24 15:44:00,16.8,-1.9,29.92,NW,304,6.1,10.4,43,0.00,CLR,SCT,0.00,WeatherDisplay:10.37,2013-01-24 20:44:00,
2013-01-24 15:49:00,16.7,-3.5,29.92,NNE,19,6.4,9.2,40,0.00,CLR,SCT,0.00,WeatherDisplay:10.37,2013-01-24 20:49:00,
2013-01-24 15:54:00,16.5,-3.7,29.92,West,261,5.8,9.2,40,0.00,CLR,SCT,0.00,WeatherDisplay:10.37,2013-01-24 20:54:00,
2013-01-24 15:59:00,16.6,-4.1,29.92,WNW,297,6.8,11.0,39,0.00,CLR,SCT,0.00,WeatherDisplay:10.37,2013-01-24 20:59:00,
2013-01-24 16:04:00,16.5,-3.7,29.93,West,273,6.4,11.5,40,0.00,CLR,SCT,0.00,WeatherDisplay:10.37,2013-01-24 21:04:00,
2013-01-24 16:09:00,16.4,-4.3,29.93,North,349,9.5,16.1,39,0.00,CLR,SCT,0.00,WeatherDisplay:10.37,2013-01-24 21:09:00,
2013-01-24 16:14:00,16.2,-3.9,29.93,SW,221,4.5,9.2,40,0.00,CLR,SCT,0.00,WeatherDisplay:10.37,2013-01-24 21:14:00,
2013-01-24 16:19:00,16.1,-3.0,29.93,North,360,5.1,11.5,42,0.00,CLR,SCT,0.00,WeatherDisplay:10.37,2013-01-24 21:19:00,
2013-01-24 16:24:00,16.1,-2.5,29.93,NW,325,5.5,9.2,43,0.00,CLR,SCT,0.00,WeatherDisplay:10.37,2013-01-24 21:24:00,
2013-01-24 16:29:00,16.0,-3.6,29.93,NW,318,5.3,8.1,41,0.00,CLR,SCT,0.00,WeatherDisplay:10.37,2013-01-24 21:29:00,
2013-01-24 16:34:00,15.9,-3.2,29.94,North,350,6.2,10.4,42,0.00,CLR,SCT,0.00,WeatherDisplay:10.37,2013-01-24 21:34:00,
2013-01-24 16:39:00,15.9,-2.7,29.94,West,272,2.2,5.8,43,0.00,CLR,SCT,0.00,WeatherDisplay:10.37,2013-01-24 21:39:00,
2013-01-24 16:44:00,15.8,-2.3,29.94,WNW,290,2.2,4.6,44,0.00,CLR,SCT,0.00,WeatherDisplay:10.37,2013-01-24 21:44:00,
2013-01-24 16:49:00,15.5,-2.6,29.95,West,265,4.2,8.1,44,0.00,CLR,SCT,0.00,WeatherDisplay:10.37,2013-01-24 21:49:00,
2013-01-24 16:54:00,15.3,-2.3,29.95,NW,312,3.4,4.6,45,0.00,CLR,SCT,0.00,WeatherDisplay:10.37,2013-01-24 21:54:00,
2013-01-24 16:59:00,14.9,-3.1,29.95,WNW,288,5.6,8.0,44,0.00,CLR,SCT,0.00,WeatherDisplay:10.37,2013-01-24 21:59:00,
2013-01-24 17:04:00,14.7,-2.4,29.95,SW,219,5.2,9.2,46,0.00,CLR,SCT,0.00,WeatherDisplay:10.37,2013-01-24 22:04:00,
2013-01-24 17:09:00,14.5,-2.6,29.95,NW,309,6.4,12.7,46,0.00,CLR,SCT,0.00,WeatherDisplay:10.37,2013-01-24 22:09:00,
2013-01-24 17:14:00,14.5,-3.5,29.95,West,276,6.0,11.0,44,0.00,CLR,SCT,0.00,WeatherDisplay:10.37,2013-01-24 22:14:00,
2013-01-24 17:19:00,14.4,-3.6,29.96,West,281,2.9,5.8,44,0.00,CLR,SCT,0.00,WeatherDisplay:10.37,2013-01-24 22:19:00,
2013-01-24 17:24:00,14.2,-3.3,29.96,NW,305,3.7,9.0,45,0.00,CLR,SCT,0.00,WeatherDisplay:10.37,2013-01-24 22:24:00,
2013-01-24 17:29:00,14.1,-2.9,29.96,West,262,5.2,9.2,46,0.00,CLR,SCT,0.00,WeatherDisplay:10.37,2013-01-24 22:29:00,
2013-01-24 17:34:00,13.9,-2.7,29.96,West,275,5.5,8.1,47,0.00,CLR,SCT,0.00,WeatherDisplay:10.37,2013-01-24 22:34:00,
2013-01-24 17:39:00,13.7,-3.3,29.97,WNW,302,3.8,6.0,46,0.00,CLR,SCT,0.00,WeatherDisplay:10.37,2013-01-24 22:39:00,
2013-01-24 17:44:00,13.5,-3.5,29.97,West,277,4.8,10.4,46,0.00,CLR,SCT,0.00,WeatherDisplay:10.37,2013-01-24 22:44:00,
2013-01-24 17:49:00,13.5,-3.9,29.98,WNW,296,4.5,5.8,45,0.00,CLR,SCT,0.00,WeatherDisplay:10.37,2013-01-24 22:49:00,
2013-01-24 17:54:00,13.4,-3.6,29.98,West,277,4.7,10.4,46,0.00,CLR,SCT,0.00,WeatherDisplay:10.37,2013-01-24 22:54:00,
2013-01-24 17:59:00,13.3,-3.7,29.98,WNW,295,5.2,6.9,46,0.00,CLR,SCT,0.00,WeatherDisplay:10.37,2013-01-24 22:59:00,
2013-01-24 18:04:00,13.2,-3.7,29.98,West,281,6.5,11.5,46,0.00,CLR,SCT,0.00,WeatherDisplay:10.37,2013-01-24 23:04:00,
2013-01-24 18:09:00,13.0,-2.6,29.98,West,276,3.5,6.9,49,0.00,CLR,SCT,0.00,WeatherDisplay:10.37,2013-01-24 23:09:00,
2013-01-24 18:14:00,12.9,-3.1,29.98,WNW,285,3.4,5.8,48,0.00,CLR,SCT,0.00,WeatherDisplay:10.37,2013-01-24 23:14:00,
2013-01-24 18:19:00,12.9,-3.6,29.99,West,267,5.2,8.1,47,0.00,CLR,SCT,0.00,WeatherDisplay:10.37,2013-01-24 23:19:00,
2013-01-24 18:24:00,12.9,-3.6,29.99,WNW,290,4.0,5.8,47,0.00,CLR,SCT,0.00,WeatherDisplay:10.37,2013-01-24 23:24:00,
2013-01-24 18:29:00,12.7,-2.9,29.98,NW,304,4.7,6.9,49,0.00,CLR,SCT,0.00,WeatherDisplay:10.37,2013-01-24 23:29:00,
2013-01-24 18:34:00,12.6,-3.0,29.98,West,281,4.8,6.9,49,0.00,CLR,SCT,0.00,WeatherDisplay:10.37,2013-01-24 23:34:00,
2013-01-24 18:39:00,12.5,-3.5,29.99,WNW,290,4.9,10.4,48,0.00,CLR,SCT,0.00,WeatherDisplay:10.37,2013-01-24 23:39:00,
2013-01-24 18:44:00,12.5,-3.1,29.99,WNW,292,3.9,5.8,49,0.00,CLR,SCT,0.00,WeatherDisplay:10.37,2013-01-24 23:44:00,
2013-01-24 18:49:00,12.3,-3.3,29.99,NNW,344,5.8,8.1,49,0.00,CLR,SCT,0.00,WeatherDisplay:10.37,2013-01-24 23:49:00,
2013-01-24 18:54:00,12.3,-3.7,29.98,South,184,5.2,8.1,48,0.00,CLR,SCT,0.00,WeatherDisplay:10.37,2013-01-24 23:54:00,
2013-01-24 18:59:00,12.3,-3.7,29.99,NNW,347,4.4,6.0,48,0.00,CLR,SCT,0.00,WeatherDisplay:10.37,2013-01-24 23:59:00,
2013-01-24 19:04:00,12.2,-3.8,29.99,WNW,296,4.8,8.1,48,0.00,CLR,SCT,0.00,WeatherDisplay:10.37,2013-01-25 00:04:00,
2013-01-24 19:09:00,12.1,-3.4,29.99,WNW,298,4.4,8.1,49,0.00,CLR,SCT,0.00,WeatherDisplay:10.37,2013-01-25 00:09:00,
2013-01-24 19:14:00,12.1,-3.9,29.99,West,279,7.1,11.5,48,0.00,CLR,SCT,0.00,WeatherDisplay:10.37,2013-01-25 00:14:00,
2013-01-24 19:19:00,12.0,-2.7,29.99,WSW,255,5.5,9.2,51,0.00,CLR,SCT,0.00,WeatherDisplay:10.37,2013-01-25 00:19:00,
2013-01-24 19:24:00,11.8,-2.9,29.99,NW,306,4.3,5.8,51,0.00,CLR,SCT,0.00,WeatherDisplay:10.37,2013-01-25 00:24:00,
2013-01-24 19:29:00,11.7,-3.0,29.99,WNW,288,4.7,6.9,51,0.00,CLR,SCT,0.00,WeatherDisplay:10.37,2013-01-25 00:29:00,
2013-01-24 19:34:00,11.7,-3.0,29.99,WNW,292,4.0,6.9,51,0.00,CLR,SCT,0.00,WeatherDisplay:10.37,2013-01-25 00:34:00,
2013-01-24 19:39:00,11.7,-3.0,29.99,NW,304,6.1,8.0,51,0.00,CLR,SCT,0.00,WeatherDisplay:10.37,2013-01-25 00:39:00,
2013-01-24 19:44:00,11.9,-3.2,29.99,NW,304,4.6,10.4,50,0.00,CLR,SCT,0.00,WeatherDisplay:10.37,2013-01-25 00:44:00,
2013-01-24 19:49:00,11.9,-3.6,29.99,WNW,299,6.0,10.4,49,0.00,CLR,SCT,0.00,WeatherDisplay:10.37,2013-01-25 00:49:00,
2013-01-24 19:54:00,11.9,-3.6,29.99,WNW,289,6.7,11.5,49,0.00,CLR,SCT,0.00,WeatherDisplay:10.37,2013-01-25 00:54:00,
2013-01-24 19:59:00,11.9,-3.2,29.99,WNW,288,4.1,5.8,50,0.00,CLR,SCT,0.00,WeatherDisplay:10.37,2013-01-25 00:59:00,
2013-01-24 20:04:00,11.7,-3.4,29.99,North,5,4.3,8.1,50,0.00,CLR,SCT,0.00,WeatherDisplay:10.37,2013-01-25 01:04:00,
2013-01-24 20:09:00,11.7,-3.4,29.99,West,276,6.5,9.2,50,0.00,CLR,SCT,0.00,WeatherDisplay:10.37,2013-01-25 01:09:00,
2013-01-24 20:14:00,11.6,-2.7,29.99,NW,318,3.3,5.0,52,0.00,CLR,SCT,0.00,WeatherDisplay:10.37,2013-01-25 01:14:00,
2013-01-24 20:19:00,11.5,-2.8,29.99,West,265,4.8,6.9,52,0.00,CLR,SCT,0.00,WeatherDisplay:10.37,2013-01-25 01:19:00,
2013-01-24 20:24:00,11.6,-3.1,29.99,West,265,5.9,10.4,51,0.00,CLR,SCT,0.00,WeatherDisplay:10.37,2013-01-25 01:24:00,
2013-01-24 20:29:00,11.6,-2.7,29.99,West,274,4.9,9.2,52,0.00,CLR,SCT,0.00,WeatherDisplay:10.37,2013-01-25 01:29:00,
2013-01-24 20:34:00,11.5,-2.8,29.99,NW,313,6.1,11.5,52,0.00,CLR,SCT,0.00,WeatherDisplay:10.37,2013-01-25 01:34:00,
2013-01-24 20:39:00,11.4,-2.8,29.99,NNW,335,5.9,11.0,52,0.00,CLR,SCT,0.00,WeatherDisplay:10.37,2013-01-25 01:39:00,
2013-01-24 20:44:00,11.4,-2.8,29.99,West,274,6.6,9.2,52,0.00,CLR,SCT,0.00,WeatherDisplay:10.37,2013-01-25 01:44:00,
2013-01-24 20:49:00,11.6,-2.7,29.99,West,265,6.2,12.0,52,0.00,CLR,SCT,0.00,WeatherDisplay:10.37,2013-01-25 01:49:00,
2013-01-24 20:54:00,11.5,-2.3,29.99,NW,307,6.5,10.4,53,0.00,CLR,SCT,0.00,WeatherDisplay:10.37,2013-01-25 01:54:00,
2013-01-24 20:59:00,11.4,-2.4,29.99,NNW,336,5.1,8.1,53,0.00,CLR,SCT,0.00,WeatherDisplay:10.37,2013-01-25 01:59:00,
2013-01-24 21:04:00,11.3,-2.1,29.99,WNW,282,4.7,9.2,54,0.00,CLR,SCT,0.00,WeatherDisplay:10.37,2013-01-25 02:04:00,
2013-01-24 21:09:00,11.2,-2.2,29.99,WNW,294,6.1,11.5,54,0.00,CLR,SCT,0.00,WeatherDisplay:10.37,2013-01-25 02:09:00,
2013-01-24 21:14:00,11.2,-1.8,30.00,WNW,282,5.6,11.5,55,0.00,CLR,SCT,0.00,WeatherDisplay:10.37,2013-01-25 02:14:00,
2013-01-24 21:19:00,11.2,-1.8,30.00,NW,310,5.5,11.0,55,0.00,CLR,SCT,0.00,WeatherDisplay:10.37,2013-01-25 02:19:00,
2013-01-24 21:24:00,11.2,-1.5,30.00,West,261,4.0,6.9,56,0.00,CLR,SCT,0.00,WeatherDisplay:10.37,2013-01-25 02:24:00,
2013-01-24 21:29:00,10.9,-1.7,30.00,WNW,302,6.1,10.4,56,0.00,CLR,SCT,0.00,WeatherDisplay:10.37,2013-01-25 02:29:00,
2013-01-24 21:34:00,10.9,-1.7,30.00,WNW,302,4.7,6.9,56,0.00,CLR,SCT,0.00,WeatherDisplay:10.37,2013-01-25 02:34:00,
2013-01-24 21:39:00,11.0,-1.7,30.00,North,355,5.9,9.0,56,0.00,CLR,SCT,0.00,WeatherDisplay:10.37,2013-01-25 02:39:00,
2013-01-24 21:44:00,11.0,-1.7,30.00,NW,318,4.7,6.9,56,0.00,CLR,SCT,0.00,WeatherDisplay:10.37,2013-01-25 02:44:00,
2013-01-24 21:49:00,11.0,-1.7,30.01,NW,325,5.7,10.4,56,0.00,CLR,SCT,0.00,WeatherDisplay:10.37,2013-01-25 02:49:00,
2013-01-24 21:54:00,11.0,-1.7,30.01,West,277,3.7,7.0,56,0.00,CLR,SCT,0.00,WeatherDisplay:10.37,2013-01-25 02:54:00,
2013-01-24 21:59:00,10.9,-1.7,30.01,WNW,292,5.2,9.0,56,0.00,CLR,SCT,0.00,WeatherDisplay:10.37,2013-01-25 02:59:00,
2013-01-24 22:04:00,10.9,-1.7,30.01,WNW,284,4.6,8.0,56,0.00,CLR,SCT,0.00,WeatherDisplay:10.37,2013-01-25 03:04:00,
2013-01-24 22:09:00,11.0,-1.7,30.02,NW,312,3.4,6.9,56,0.00,CLR,SCT,0.00,WeatherDisplay:10.37,2013-01-25 03:09:00,
2013-01-24 22:14:00,10.8,-1.5,30.02,WNW,291,2.1,4.6,57,0.00,CLR,SCT,0.00,WeatherDisplay:10.37,2013-01-25 03:14:00,
2013-01-24 22:19:00,10.7,-1.6,30.02,West,275,4.2,5.0,57,0.00,CLR,SCT,0.00,WeatherDisplay:10.37,2013-01-25 03:19:00,
2013-01-24 22:24:00,10.7,-1.6,30.02,SE,138,2.7,6.9,57,0.00,CLR,SCT,0.00,WeatherDisplay:10.37,2013-01-25 03:24:00,
2013-01-24 22:29:00,10.6,-1.3,30.02,WNW,303,3.1,4.6,58,0.00,CLR,SCT,0.00,WeatherDisplay:10.37,2013-01-25 03:29:00,
2013-01-24 22:34:00,10.5,-1.4,30.01,SW,229,5.0,6.9,58,0.00,CLR,SCT,0.00,WeatherDisplay:10.37,2013-01-25 03:34:00,
2013-01-24 22:39:00,10.7,-1.6,30.02,WNW,303,5.3,6.9,57,0.00,CLR,SCT,0.00,WeatherDisplay:10.37,2013-01-25 03:39:00,
2013-01-24 22:44:00,10.7,-1.6,30.02,WNW,295,6.0,6.0,57,0.00,CLR,SCT,0.00,WeatherDisplay:10.37,2013-01-25 03:44:00,
2013-01-24 22:49:00,10.8,-1.1,30.03,West,266,3.0,4.6,58,0.00,CLR,SCT,0.00,WeatherDisplay:10.37,2013-01-25 03:49:00,
2013-01-24 22:54:00,10.6,-1.3,30.03,WNW,289,3.9,4.6,58,0.00,CLR,SCT,0.00,WeatherDisplay:10.37,2013-01-25 03:54:00,
2013-01-24 22:59:00,10.5,-1.0,30.03,NW,304,3.0,5.0,59,0.00,CLR,SCT,0.00,WeatherDisplay:10.37,2013-01-25 03:59:00,
2013-01-24 23:04:00,10.4,-1.1,30.03,NW,310,3.4,4.6,59,0.00,CLR,SCT,0.00,WeatherDisplay:10.37,2013-01-25 04:04:00,
2013-01-24 23:09:00,10.4,-1.1,30.03,WNW,286,3.7,6.0,59,0.00,CLR,SCT,0.00,WeatherDisplay:10.37,2013-01-25 04:09:00,
2013-01-24 23:14:00,10.5,-0.7,30.03,NW,316,2.1,4.0,60,0.00,CLR,SCT,0.00,WeatherDisplay:10.37,2013-01-25 04:14:00,
2013-01-24 23:19:00,10.4,-0.8,30.02,NW,321,4.6,8.1,60,0.00,CLR,SCT,0.00,WeatherDisplay:10.37,2013-01-25 04:19:00,
2013-01-24 23:24:00,10.3,-0.5,30.02,WNW,303,4.5,5.8,61,0.00,CLR,SCT,0.00,WeatherDisplay:10.37,2013-01-25 04:24:00,
2013-01-24 23:29:00,10.2,-0.6,30.02,NW,309,1.4,2.3,61,0.00,CLR,SCT,0.00,WeatherDisplay:10.37,2013-01-25 04:29:00,
2013-01-24 23:34:00,10.1,-0.7,30.02,NW,307,0.3,1.1,61,0.00,CLR,SCT,0.00,WeatherDisplay:10.37,2013-01-25 04:34:00,
2013-01-24 23:39:00,9.9,-0.5,30.03,WNW,299,1.5,3.5,62,0.00,CLR,SCT,0.00,WeatherDisplay:10.37,2013-01-25 04:39:00,
2013-01-24 23:44:00,9.8,-0.6,30.03,WNW,299,0.3,1.1,62,0.00,CLR,SCT,0.00,WeatherDisplay:10.37,2013-01-25 04:44:00,
2013-01-24 23:49:00,9.7,-0.7,30.03,NW,321,1.3,2.3,62,0.00,CLR,SCT,0.00,WeatherDisplay:10.37,2013-01-25 04:49:00,
2013-01-24 23:54:00,9.7,-0.7,30.03,WNW,290,2.3,3.5,62,0.00,CLR,SCT,0.00,WeatherDisplay:10.37,2013-01-25 04:54:00,
2013-01-24 23:59:00,9.8,-0.6,30.03,WNW,285,1.6,3.5,62,0.00,CLR,SCT,0.00,WeatherDisplay:10.37,2013-01-25 04:59:00,